Theta_e
315 316 315 315 315 315 313 313 313 310 307 307 307 306 307 308 309 307 307 307 308 306 306 306 306 306 307 306 306 305 305 305 306 307 305 305 304 304 305 303 303 302
315 316 316 314 314 314 313 313 310 308 307 306 307 307 308 307 308 307 306 305 306 305 305 305 306 306 305 304 305 305 303 303 303 309 305 304 304 303 303 303 302 302
313 313 313 313 312 312 312 311 309 307 307 307 308 307 309 308 306 306 306 305 304 304 304 304 305 305 305 304 304 303 303 302 303 303 305 303 303 303 303 302 302 301
313 313 312 312 311 311 311 309 308 308 307 307 306 308 309 309 306 305 305 308 303 303 303 304 304 304 304 304 303 302 303 302 302 303 302 303 304 303 302 302 302 300
312 312 312 311 311 312 309 308 307 307 307 306 307 308 307 304 303 303 303 302 302 302 302 302 302 303 303 302 303 301 303 301 302 302 301 301 301 303 303 301 300 299
312 312 312 312 311 309 307 306 306 306 306 305 305 306 304 303 302 302 302 301 301 300 300 300 300 300 301 301 301 302 301 302 302 301 301 300 300 301 303 301 299 298
311 310 310 310 309 307 306 306 306 306 305 305 305 304 304 303 302 302 301 300 299 300 298 298 298 298 299 299 299 299 302 302 301 301 300 300 301 300 300 300 298 297
308 308 307 306 306 305 305 305 305 304 305 304 303 304 304 304 302 302 300 300 299 297 297 296 297 297 298 298 299 299 300 303 302 301 300 299 299 298 298 299 297 296
307 307 307 306 305 304 304 304 304 304 305 303 303 303 304 302 301 301 300 299 298 296 296 296 296 296 297 297 298 298 299 300 301 299 299 299 298 298 298 298 297 296
306 305 305 304 304 303 303 303 304 304 304 303 303 303 303 302 301 300 299 298 296 295 295 295 295 295 295 296 297 297 298 300 300 299 299 299 298 297 297 297 296 295
305 305 304 303 303 303 303 303 303 303 304 303 303 303 302 301 301 300 298 297 296 295 294 294 294 294 294 294 295 296 297 298 299 299 298 298 298 299 301 296 296 295
304 303 303 302 303 302 302 303 303 303 302 303 303 302 301 301 300 299 298 296 295 294 294 294 293 293 293 293 294 295 295 297 299 299 298 298 297 297 297 297 296 295
303 303 302 302 302 302 302 302 302 302 302 302 303 302 301 300 300 298 297 295 295 294 294 293 293 292 292 292 292 293 294 296 297 298 297 298 297 297 296 296 295 296
302 302 302 302 302 302 302 302 302 302 302 303 303 301 300 300 299 298 297 296 294 294 293 293 292 292 291 291 292 292 293 294 296 298 297 297 297 296 296 296 295 295
302 302 302 302 302 301 301 301 301 301 302 302 303 303 302 300 299 298 296 295 294 293 292 292 292 292 292 292 291 292 292 294 295 296 297 297 296 296 295 295 294 295
302 302 301 301 301 300 300 301 301 301 301 301 301 301 299 298 297 296 295 294 293 292 292 292 292 293 294 293 294 292 292 293 295 296 297 296 295 296 295 295 295 294
301 301 301 300 300 300 300 301 301 301 301 301 300 300 299 298 296 294 293 293 293 291 291 292 292 293 293 292 292 293 294 292 293 295 297 295 294 294 294 295 294 294
300 300 300 300 300 300 300 300 300 300 300 300 300 300 299 297 295 294 293 293 292 291 290 291 291 294 291 292 292 292 294 294 294 296 297 295 294 294 294 294 293 294
299 300 300 299 299 300 300 300 300 300 299 299 299 300 299 297 295 294 293 292 292 291 290 290 289 293 291 292 292 292 292 296 296 296 297 295 293 294 294 293 293 295
299 299 298 298 299 299 299 299 299 298 298 298 299 299 298 298 296 294 294 293 292 291 290 289 289 292 291 292 292 291 292 294 296 294 295 295 295 295 295 293 293 292
298 297 298 298 298 298 298 298 298 297 298 298 297 297 296 297 297 295 295 295 293 292 291 290 291 292 291 291 291 291 292 294 295 294 294 293 294 295 295 293 292 293
297 297 297 297 298 298 297 297 297 297 297 297 297 295 295 295 295 297 295 294 293 292 290 289 289 291 291 291 291 291 293 294 293 292 292 292 292 293 294 294 292 292
298 297 297 297 297 297 296 296 296 296 296 297 295 295 294 293 293 294 295 295 295 293 290 288 288 291 291 291 291 291 292 291 291 291 291 290 291 292 293 294 293 292
297 297 297 297 296 296 296 295 296 296 296 297 295 294 293 293 293 293 293 294 294 293 292 289 288 291 291 291 291 291 293 290 291 290 289 289 290 291 292 293 294 301
297 297 297 296 296 296 296 296 296 296 297 297 296 295 295 294 295 293 292 292 292 294 299 291 289 292 292 291 291 291 292 289 290 289 289 288 289 290 292 292 292 296
297 298 297 297 296 296 296 296 296 296 296 296 296 296 295 294 294 293 292 292 293 295 297 293 291 290 291 292 292 291 292 290 290 288 289 288 288 292 291 291 291 291
Wind_Speed
8 7 7 7 6 5 6 5 6 8 6 6 6 5 5 5 6 6 5 6 6 6 6 6 6 6 6 6 5 6 6 6 6 5 7 7 7 7 7 7 7 7
8 7 7 6 6 5 5 6 8 7 7 6 5 5 5 5 5 5 5 6 6 6 6 6 6 6 6 6 7 7 7 7 7 4 6 7 6 7 8 7 6 7
7 7 7 7 7 6 6 7 7 6 6 5 4 4 4 4 5 5 5 5 5 6 6 6 6 6 6 7 7 6 6 7 7 6 6 5 6 7 7 7 5 8
6 7 6 7 6 6 6 6 5 6 4 5 4 4 4 4 5 6 5 5 5 6 6 6 6 6 6 6 6 6 6 6 5 5 6 6 6 6 7 6 7 9
7 6 5 6 5 5 6 6 5 5 4 4 5 4 5 5 6 6 6 6 6 6 6 7 8 7 7 7 5 6 5 6 5 5 6 5 5 5 5 7 9 10
6 5 4 5 6 7 7 7 6 5 5 5 5 5 6 6 6 6 6 7 7 8 8 8 8 8 8 7 7 4 4 6 5 5 5 5 4 5 6 8 9 9
4 5 6 6 7 7 6 5 5 5 5 5 5 5 5 7 7 8 7 7 8 8 8 8 8 8 7 6 6 6 4 4 4 5 4 4 6 7 7 8 9 9
8 7 8 8 8 7 7 6 5 5 4 5 5 4 5 7 7 7 7 8 8 9 8 8 8 7 7 6 7 8 5 4 4 6 6 5 6 6 7 7 7 7
7 7 7 7 7 6 6 6 5 5 5 6 5 6 7 8 8 8 8 8 9 8 8 8 7 6 6 7 7 7 6 4 4 5 4 5 7 7 7 6 6 6
7 7 7 7 6 5 5 5 5 5 5 5 5 6 8 8 9 9 9 9 8 8 8 7 7 7 7 6 6 6 7 6 4 4 4 4 6 6 6 5 5 4
7 7 7 6 6 6 6 6 6 6 4 4 5 6 7 8 8 9 9 8 8 8 7 7 6 6 7 7 7 6 6 7 4 3 5 4 5 5 6 5 3 3
7 7 7 7 6 6 7 6 7 6 6 6 7 8 8 8 8 8 8 9 8 7 6 6 5 5 6 6 6 6 6 6 6 3 4 4 4 5 5 4 3 2
8 7 7 6 6 6 6 6 6 6 6 7 7 8 8 8 8 9 8 9 7 6 6 5 5 5 6 6 5 6 6 6 6 4 4 2 3 5 4 5 4 4
7 7 7 6 5 6 6 7 6 6 6 6 7 8 8 8 9 9 8 7 6 5 5 4 5 6 6 5 5 5 5 5 4 5 2 2 3 4 4 4 5 4
7 6 6 6 7 7 7 7 6 5 5 6 6 6 7 9 8 8 8 7 6 5 5 5 5 5 4 4 6 6 5 5 5 5 2 3 4 3 4 4 4 4
8 6 7 6 7 8 7 6 5 5 5 6 7 8 9 9 9 8 7 6 5 4 4 5 4 4 5 7 6 3 4 4 5 3 3 3 4 3 2 3 3 4
7 7 7 8 7 7 7 6 6 6 6 6 7 9 10 10 9 8 6 5 5 4 4 4 4 4 8 9 8 7 5 3 3 4 3 3 4 2 2 2 1 3
8 8 8 8 7 7 7 7 7 7 6 6 7 8 9 9 9 7 6 5 4 4 4 4 4 7 10 12 13 13 9 5 3 4 2 2 4 2 1 1 1 3
8 9 9 7 8 8 7 7 7 6 6 6 6 6 7 9 8 8 7 5 5 5 4 4 4 8 10 12 13 13 13 9 5 4 5 4 4 5 1 2 2 4
9 9 8 8 8 7 7 7 7 7 6 5 5 6 7 8 8 8 6 6 5 5 4 4 4 6 10 12 13 13 13 9 5 5 6 7 7 9 4 2 4 4
9 8 9 8 8 8 8 8 7 7 7 6 6 6 5 6 8 7 6 6 5 5 5 5 3 8 10 12 12 13 12 9 6 6 6 6 6 7 8 2 4 3
9 10 9 8 9 9 9 8 7 7 7 6 5 5 4 4 5 6 5 5 5 5 5 4 3 7 10 11 12 12 11 6 5 5 6 6 6 6 6 3 1 2
10 10 9 9 9 9 7 6 7 7 7 6 7 6 6 5 4 5 5 6 5 4 5 4 4 5 8 9 11 11 8 6 4 6 5 6 6 5 4 4 2 0
9 9 10 9 8 8 8 7 7 6 6 6 7 7 7 6 5 5 4 5 6 5 5 4 3 3 6 8 9 9 7 4 4 5 6 5 6 7 6 5 4 6
9 9 9 9 9 8 7 8 8 8 7 7 7 7 7 7 6 6 4 4 4 5 8 6 4 2 4 5 6 5 4 3 4 4 5 6 6 7 7 7 6 6
9 9 9 9 9 7 7 7 6 7 7 7 6 7 7 6 6 6 6 4 4 5 5 5 4 2 1 1 4 5 5 3 3 4 4 4 5 5 6 7 7 6
Wind_Direction
82 78 81 85 89 97 104 103 84 89 92 90 90 78 67 57 57 65 61 50 49 45 36 36 38 40 39 37 36 38 31 27 29 41 50 46 42 36 30 32 45 50
89 92 92 93 98 99 94 88 96 100 98 98 97 87 74 65 57 72 66 60 54 47 41 39 38 43 44 42 35 35 29 24 26 26 46 48 45 37 29 33 45 50
95 94 99 105 109 105 85 86 97 98 100 109 104 96 89 74 71 70 77 72 61 54 46 40 39 39 44 45 40 37 32 28 28 28 41 40 44 41 30 31 35 52
103 109 114 119 120 107 98 101 94 97 98 94 102 104 99 89 76 66 58 63 63 56 49 42 38 35 38 38 44 35 30 29 32 40 40 37 39 43 32 35 46 52
121 125 134 125 115 104 104 97 96 96 94 96 84 83 86 81 79 73 67 57 55 51 45 42 34 29 28 30 30 43 30 32 24 43 46 47 44 44 33 47 54 53
148 147 129 117 116 111 101 104 106 100 94 83 89 85 84 83 78 76 68 62 54 51 44 39 35 26 22 23 20 19 37 32 30 47 51 51 45 34 42 57 60 55
147 125 112 107 104 104 107 109 108 108 105 106 92 90 94 89 86 79 72 65 59 53 47 40 34 26 17 16 19 9 6 37 40 47 48 47 52 42 47 65 64 59
109 105 101 98 96 99 101 99 99 99 104 94 96 90 83 84 83 80 74 68 63 55 48 40 32 27 16 12 15 9 351 35 41 45 37 40 60 49 50 65 66 64
106 105 106 106 108 107 110 109 102 97 92 97 100 93 85 88 83 76 70 68 66 59 50 41 31 23 14 14 12 8 351 22 51 53 39 54 66 61 60 66 67 65
106 108 106 112 113 117 117 117 115 111 104 97 99 94 91 85 81 76 71 67 63 59 53 43 33 21 15 14 13 359 0 351 48 60 48 67 81 74 67 72 81 75
117 112 113 113 116 117 114 110 110 110 108 101 84 81 86 88 83 79 75 67 61 59 54 46 36 24 16 12 5 1 359 352 351 58 62 60 83 85 84 83 87 97
120 118 119 121 123 121 118 115 111 108 105 97 97 95 90 87 87 82 80 74 66 59 54 50 40 29 23 11 3 359 356 356 350 44 67 60 83 92 91 89 90 83
126 127 127 127 126 124 115 105 106 110 109 108 102 97 95 91 88 89 85 81 73 63 55 46 39 31 24 13 4 2 357 354 358 359 60 25 85 99 96 91 50 52
131 129 129 130 123 109 102 101 98 97 107 113 110 107 105 99 95 93 89 85 80 71 57 49 39 31 21 11 7 1 355 354 354 335 16 17 65 90 98 89 58 61
132 131 128 123 117 110 104 101 100 102 101 102 104 105 97 94 95 91 90 87 81 72 59 47 43 31 21 6 1 0 0 355 336 337 315 40 45 93 96 94 82 70
133 129 126 120 116 117 117 116 114 108 100 94 97 102 101 95 86 83 84 86 83 69 59 49 40 31 17 19 20 355 352 341 334 332 325 44 47 92 95 94 95 77
129 127 123 122 122 119 116 113 111 108 104 100 99 103 105 102 97 94 92 86 85 77 58 50 37 18 14 26 30 22 8 355 335 323 314 62 30 77 134 95 55 90
135 130 128 129 124 120 117 115 112 108 106 104 103 107 112 110 108 108 105 101 92 80 63 46 34 10 21 22 18 15 14 359 333 331 349 64 38 27 111 162 109 81
136 134 134 132 129 125 120 118 117 114 110 105 104 110 112 116 122 117 112 110 96 80 67 47 42 12 24 25 21 15 9 13 359 356 15 352 9 347 92 173 100 85
138 136 136 134 129 124 120 119 119 118 117 110 104 95 103 122 130 128 129 115 104 91 72 55 41 15 29 27 23 18 13 17 1 13 26 18 8 3 337 126 90 100
138 135 135 132 126 123 121 123 125 123 117 118 114 114 112 118 132 138 136 129 117 101 80 51 28 19 30 30 26 20 14 25 3 9 21 13 7 7 359 39 114 126
136 136 134 130 127 127 132 137 138 137 135 134 122 116 108 95 90 109 125 128 128 110 85 57 26 23 31 31 28 22 23 23 10 17 17 5 3 4 359 348 143 124
138 136 133 131 133 135 139 139 133 129 127 124 119 121 112 103 104 100 114 127 130 115 105 85 46 27 39 35 28 25 27 11 11 18 12 5 354 349 346 339 295 226
139 137 135 134 135 139 140 138 134 130 133 131 131 132 127 132 120 108 113 125 134 143 135 115 88 44 53 41 33 25 26 24 359 18 3 3 352 345 350 347 303 286
137 135 135 135 137 143 142 141 143 146 147 142 146 144 146 142 134 127 131 132 139 146 143 130 132 87 56 42 45 32 29 10 11 21 14 354 353 341 340 344 329 305
136 135 136 138 142 144 142 144 144 136 143 149 154 148 148 151 145 150 154 173 175 147 149 145 146 146 107 52 43 40 36 24 21 30 6 351 344 338 337 326 315 313